Location: Spring Creek
(38.2870°N, 100.2160°W)
Time: 23:40:39
(UTC+00:00)

USA 290 - Pass Details

Date: 08 May 2021
Orbit: 400 x 415 km, 73.6° (Epoch: 12 May)

Event Time Altitude Azimuth Distance (km) Brightness Sun altitude
Rises 03:57:57 0° 338° (NNW) 2,345 7.2 -23.2°
Reaches altitude 10° 04:00:01 10° 335° (NNW) 1,476 6.0 -23.4°
Enters shadow 04:02:16 40° 318° (NW) 616 3.5 -23.7°
